Home   Weather   Salisbury   Past weeks

Flag for United Kingdom Past Weather in Salisbury, England, United Kingdom — Yesterday and Last 2 Weeks

Now
46 °F

Rain. Partly cloudy.


Feels Like: 39 °F
Forecast: N/A
Wind: 20 mph from Northwest

Location: Boscombe Down

Current Time: Dec 10, 2016 at 8:48:46 pm

Latest Report: Dec 10, 2016 at 7:50 pm


Visibility: 5 mi

Pressure: 30.09 "Hg

Humidity: 100%

Dew Point: 46 °F

Location of SalisburyLocation

Past Weather in Salisbury — Graph

°F

Salisbury Temperature Yesterday

Maximum temperature yesterday: 55 °F (at 12:50 pm)
Minimum temperature yesterday: 50 °F (at 7:50 pm)
Average temperature yesterday: 52 °F

High & Low Weather Summary for the Past Weeks

 TemperatureHumidityPressure
High55 °F (Dec 7, 1:50 pm)100% (Nov 26, 12:50 am)30.57 "Hg (Nov 26, 12:50 am)
Low23 °F (Nov 30, 5:50 am)43% (Nov 28, 1:50 pm)30.04 "Hg (Dec 10, 5:50 pm)
Average42 °F88%30.29 "Hg
* Reported Nov 25 6:50 pm — Dec 10 6:50 pm, Salisbury, Weather by CustomWeather, © 2016

Note: Actual official high and low records may vary slightly from our data, if they occured in-between our weather recording intervals... More about our weather records

Advertising

Salisbury Weather History for the Previous 24 Hours

Scroll right to see more
 ConditionsComfort  
Time TempWeatherWind HumidityBarometerVisibility
6:50 pm
Sat, Dec 10
54 °FPartly cloudy.16 mph94%30.04 "Hg2 mi
5:50 pm52 °FSprinkles. Low clouds.16 mph100%30.04 "Hg5 mi
4:50 pm52 °FLight rain. Mostly cloudy.16 mph100%30.07 "HgN/A
3:50 pm52 °FRain. More clouds than sun.14 mph100%30.09 "Hg4 mi
2:50 pm54 °FDrizzle. Mostly cloudy.15 mph94%30.09 "Hg2 mi
1:50 pm54 °FDrizzle. More clouds than sun.14 mph94%30.12 "Hg4 mi
12:50 pm54 °FDrizzle. Low clouds.15 mph100%30.12 "Hg2 mi
11:50 am54 °FDrizzle. Low clouds.12 mph100%30.15 "Hg1 mi
10:50 am54 °FRain. Fog.8 mph100%30.15 "Hg2 mi
9:50 am52 °FFog.5 mph100%30.18 "Hg1 mi
8:50 am52 °FDrizzle. Low clouds.2 mph100%30.18 "Hg0 mi
7:50 am52 °FFog.5 mph100%30.18 "Hg0 mi
6:50 am52 °FFog.5 mph100%30.15 "Hg0 mi
5:50 am52 °FFog.7 mph100%30.15 "Hg1 mi
4:50 am52 °FFog.8 mph100%30.15 "Hg1 mi
3:50 am52 °FPassing clouds.8 mph100%30.15 "Hg1 mi
2:50 am52 °FPassing clouds.8 mph100%30.18 "Hg1 mi
1:50 am52 °FFog.13 mph100%30.18 "Hg2 mi
12:50 am52 °FFog.12 mph100%30.18 "Hg2 mi
11:50 pm
Fri, Dec 9
52 °FFog.13 mph94%30.18 "Hg4 mi
10:50 pm52 °FFog.13 mph94%30.21 "Hg4 mi
9:50 pm50 °FFog.9 mph100%30.21 "Hg4 mi
8:50 pm50 °FFog.7 mph100%30.24 "Hg3 mi
Weather by CustomWeather, © 2016

See weather overviewHow to use our weather pages